Back to catalog

CHUANG XIN 1

CZ-1

AliveScienceSSO
NORAD 28058·PAYLOAD·🇨🇳 China

Launched Oct 21, 2003 from Taiyuan Satellite Launch Center

Loading…

Next Passes (next 24 hours)

TLE

FreshSource: Space-Track

Epoch: Sep 14, 2026, 05:00 UTC

1 28058U 03049B   26257.20894570  .00000144  00000-0  50416-4 0  9995
2 28058  98.4954 156.8752 0011283 273.6486  86.3417 14.48620131209166

Track CHUANG XIN 1 in real time with AllMySat

Download on the App Store